GFSNGP_850_spd_090.txt.gz
Wind_Speed
13 7 5 3 9 16 18 14 10 7 15 13 11 10 7 11 19 13 2 4 7 10 12 15 15 20 23 24 23 20 18 17 15 14 13 13 13 14 15 15 16 17 18 18
10 3 3 4 11 12 19 18 17 13 18 10 18 24 24 22 22 19 8 7 13 14 14 17 20 21 21 22 21 20 18 16 15 15 14 14 14 15 15 15 16 16 17 18
1 7 4 4 13 15 11 14 15 16 19 12 12 10 15 16 15 14 14 14 15 15 18 19 22 21 23 22 19 18 17 15 15 14 15 15 15 15 15 15 16 16 16 16
3 7 4 4 3 19 16 13 14 13 9 12 11 17 20 19 15 15 17 18 15 15 19 19 23 22 22 22 20 18 17 17 16 17 16 16 15 15 15 15 16 15 14 12
3 4 2 2 2 5 8 8 9 10 9 12 13 3 12 14 14 13 15 19 18 16 17 21 24 26 25 23 20 19 19 18 18 17 17 17 16 16 15 15 15 12 11 12
3 2 1 3 1 3 5 3 4 5 4 5 5 0 3 8 13 17 14 13 13 15 15 15 25 27 26 25 23 21 19 19 17 18 18 17 16 15 14 15 13 12 12 12
5 3 5 6 7 5 1 2 5 5 4 1 2 3 9 13 11 12 12 9 11 13 11 14 24 27 26 26 23 19 18 18 18 18 18 17 16 15 15 14 13 13 13 13
4 3 3 8 4 2 1 3 2 1 0 1 3 6 6 6 10 9 8 5 10 10 13 16 21 23 23 24 20 19 16 15 15 16 16 15 15 15 15 14 13 14 14 14
3 1 4 8 6 7 10 5 4 3 3 3 3 4 5 7 6 5 5 1 7 11 15 20 20 20 21 20 18 16 14 13 14 15 15 14 15 14 15 14 15 16 16 16
5 3 5 18 9 11 9 8 7 4 4 6 4 4 3 2 3 3 4 4 3 5 8 11 13 15 14 14 12 11 11 12 13 13 14 14 14 15 15 14 16 17 17 17
5 12 17 8 16 18 19 9 6 9 9 6 2 1 0 2 4 5 6 5 5 5 5 5 6 7 7 8 9 9 10 11 12 11 13 13 14 14 13 12 14 15 16 15
4 10 7 10 22 19 15 13 8 8 5 4 3 3 3 2 3 3 4 4 4 4 3 3 2 3 5 7 8 11 12 13 12 11 12 13 13 13 12 13 14 15 17 17
6 13 11 17 14 13 17 15 10 3 5 5 5 5 3 3 4 4 4 3 2 1 2 3 5 5 9 13 14 12 12 13 13 13 12 12 13 11 12 13 15 18 18 18
18 17 15 10 11 19 15 14 7 3 6 6 5 5 4 4 3 2 3 4 4 4 4 5 6 8 10 11 11 12 13 14 15 16 15 14 14 14 13 13 15 16 16 18
15 13 15 15 17 15 11 9 4 2 3 5 5 4 3 2 1 1 2 3 3 4 6 8 9 10 10 10 12 12 13 15 15 16 16 15 15 16 16 16 16 17 17 18
17 15 13 12 13 10 10 7 2 3 3 4 4 4 3 2 2 2 3 4 5 7 8 8 12 13 12 12 12 13 14 14 15 17 18 17 17 16 17 19 20 21 22 21
10 13 9 16 15 10 8 6 4 5 5 6 4 2 2 2 4 6 7 9 10 10 10 10 12 14 12 12 12 13 13 14 15 18 18 19 19 19 18 18 20 21 22 22
7 12 12 13 15 10 6 6 5 6 6 4 3 3 3 5 7 9 9 9 8 6 7 10 11 12 11 10 11 12 14 14 15 17 18 19 19 20 20 21 21 22 22 22
6 5 8 7 6 3 5 5 5 5 4 2 4 4 6 7 7 6 6 6 6 7 9 10 9 10 10 11 11 12 13 14 15 15 17 18 19 20 20 21 22 22 22 22
7 6 5 5 3 3 4 4 4 3 2 4 5 5 5 5 6 6 7 7 7 8 10 10 10 10 10 9 10 11 12 12 14 16 17 17 17 18 19 19 20 21 21 22
4 4 3 3 3 2 2 2 2 2 3 4 4 4 5 6 7 6 6 7 7 9 10 10 10 10 11 12 11 11 11 11 12 13 14 15 16 17 18 19 20 21 21 22
2 2 3 4 3 2 2 2 3 3 4 4 5 5 5 6 6 5 5 5 7 8 8 8 9 10 10 11 11 11 11 11 12 12 12 14 15 16 17 18 19 20 21 21
3 5 7 5 5 4 3 4 4 5 5 5 5 5 5 5 6 5 6 6 8 8 9 9 9 10 10 11 11 11 12 12 12 12 13 13 14 15 16 17 17 18 19 19
3 3 4 5 3 4 5 5 6 6 6 6 6 6 6 6 6 6 7 8 8 8 9 9 9 10 11 11 12 12 13 13 14 14 14 15 15 16 17 17 18 19 20 21
3 4 5 4 4 5 7 8 8 8 8 7 7 7 8 8 8 8 8 8 8 8 9 9 10 11 11 12 13 14 15 15 16 16 17 17 18 18 18 18 19 19 20 21
6 7 9 11 11 11 11 12 12 11 11 10 10 10 9 9 9 9 9 9 9 8 8 8 8 9 11 13 14 16 17 18 19 19 20 20 21 21 21 21 21 22 23 23
14 14 15 15 13 13 14 15 15 13 13 13 12 12 11 11 10 10 10 10 9 8 8 8 10 11 13 15 17 19 20 22 22 23 23 23 23 24 24 24 25 25 25 25

GFSNGP_850_spd_093.txt.gz
Wind_Speed
8 11 6 3 6 13 13 9 9 6 13 13 8 4 6 3 9 10 10 13 8 8 8 10 14 19 22 22 23 22 22 21 20 20 18 16 14 13 14 15 16 16 17 17
5 10 8 8 12 13 17 16 14 8 9 5 15 18 13 14 12 14 13 15 14 15 14 14 15 17 21 24 23 20 20 19 19 19 17 15 14 14 14 14 15 16 17 18
4 1 8 4 13 14 11 15 15 15 21 7 13 8 15 16 12 8 9 9 13 16 19 18 17 18 20 21 22 22 21 20 19 18 16 16 15 14 14 15 16 16 17 17
4 2 0 5 2 16 18 13 16 14 7 12 16 21 20 15 9 10 14 17 18 18 17 22 20 18 17 19 22 23 22 21 20 19 17 17 15 14 14 14 16 16 17 16
1 2 6 4 3 3 7 8 5 7 10 14 12 7 4 2 4 7 9 12 15 17 18 19 23 21 20 22 22 23 23 22 21 19 17 16 15 15 16 16 17 17 16 15
3 1 2 3 3 3 4 3 5 6 5 5 5 1 4 4 11 15 15 16 17 15 19 16 22 23 24 22 23 24 23 22 19 17 16 16 15 16 16 16 15 15 14 13
5 3 5 4 3 0 2 3 3 6 5 3 1 3 5 9 9 12 13 11 10 10 10 13 14 24 27 23 23 20 20 19 17 16 16 15 15 16 15 15 15 14 12 13
3 2 5 9 4 2 3 3 2 1 1 1 1 3 4 6 9 10 10 6 7 9 11 12 13 23 26 23 18 18 18 17 16 16 15 15 16 16 16 16 15 13 13 14
3 3 2 18 17 15 11 4 3 2 2 0 2 1 3 5 6 6 7 5 2 5 7 10 15 22 22 21 19 18 17 16 15 15 14 14 15 16 16 15 15 14 15 15
3 2 2 3 10 21 18 14 10 2 1 3 2 1 0 1 3 5 5 5 3 3 6 9 13 16 15 15 16 16 15 15 14 13 12 12 13 14 15 15 15 14 16 16
4 9 13 4 15 19 21 16 10 5 6 5 4 3 2 2 3 4 5 6 7 7 6 6 8 9 10 11 12 12 13 13 12 11 11 12 11 12 14 13 12 14 14 15
4 3 5 9 16 19 18 24 19 14 6 3 5 5 4 5 4 3 4 4 4 5 6 6 6 5 4 4 6 8 10 11 12 12 12 12 10 11 13 9 12 13 14 15
3 12 14 17 17 8 16 17 21 14 5 4 6 6 5 6 6 5 5 4 2 1 1 1 2 2 4 5 7 10 13 14 13 12 13 12 11 11 12 10 10 13 15 17
19 21 19 17 9 14 15 18 17 11 4 5 6 6 6 5 5 2 3 4 3 3 2 2 2 4 6 8 10 11 12 13 13 14 15 14 13 13 12 12 12 12 13 14
13 9 16 12 12 11 10 14 15 9 6 6 7 8 6 6 5 3 2 1 1 1 2 3 5 6 7 8 9 11 12 12 13 15 15 15 15 15 14 14 15 15 13 15
15 14 12 11 9 10 8 10 10 7 5 6 7 7 6 5 4 2 2 2 3 4 5 5 6 9 12 12 11 10 11 12 13 14 14 15 16 16 15 15 16 16 18 17
11 13 8 14 12 12 9 6 5 6 5 5 5 5 5 4 3 3 5 7 8 8 8 6 7 8 10 10 10 11 11 11 12 13 14 15 15 16 16 17 17 17 17 16
7 10 11 12 13 12 6 3 4 5 5 5 5 4 4 4 4 5 6 7 6 5 6 6 7 7 8 8 8 8 9 10 10 12 14 15 15 16 17 18 19 19 19 18
6 6 8 8 6 2 3 4 5 5 5 5 4 3 3 4 4 4 3 3 4 5 6 7 8 8 8 7 8 8 8 9 10 10 12 13 15 16 16 17 18 18 19 20
6 7 7 6 4 3 2 1 2 2 2 2 2 2 4 3 3 3 4 4 4 5 6 7 7 8 8 8 8 8 8 9 9 10 12 13 13 14 14 15 16 17 18 19
5 5 5 4 2 1 1 2 2 1 2 3 2 3 3 3 3 3 4 3 4 5 6 7 7 7 8 8 8 8 7 7 7 7 8 9 10 11 13 15 16 17 18 19
1 1 1 0 1 2 2 3 1 1 2 2 2 3 3 3 3 3 2 2 3 5 5 5 6 7 7 8 8 8 8 8 8 8 8 9 10 11 12 13 14 15 16 17
0 1 2 1 0 1 2 2 2 2 2 2 2 3 3 3 2 2 2 3 4 4 4 5 5 6 7 7 8 9 9 10 10 10 10 11 11 12 12 13 14 15 16 18
1 3 4 3 2 3 4 4 3 4 4 4 4 4 4 4 4 3 3 3 3 4 4 4 5 5 6 6 7 8 9 10 11 12 12 13 14 14 15 16 16 17 17 18
5 6 9 9 9 10 10 9 8 7 7 7 6 6 7 6 6 6 5 5 5 4 4 4 4 4 5 6 8 10 11 13 15 16 17 17 18 18 18 19 19 20 21 21
10 11 11 12 14 14 13 14 14 11 12 10 9 9 9 9 8 8 7 6 6 5 4 4 4 5 6 8 11 12 14 16 18 19 20 20 20 20 21 21 22 22 24 24
13 13 14 15 15 16 15 15 16 13 12 12 12 11 11 11 10 10 9 8 8 7 6 6 6 7 9 11 13 15 18 20 21 22 21 20 19 19 20 20 21 22 23 24

GFSNGP_850_spd_096.txt.gz
Wind_Speed
8 10 7 5 6 11 11 8 8 5 7 7 6 5 4 5 2 5 10 12 11 8 7 8 10 12 16 20 23 23 22 22 23 24 22 22 23 20 19 19 18 18 19 18
5 3 10 14 10 7 11 10 15 7 13 3 10 6 4 6 9 11 13 17 17 17 16 17 15 14 16 20 23 24 24 25 25 23 20 18 18 18 17 16 17 17 17 16
4 5 5 8 15 14 9 9 14 15 18 2 7 9 11 14 14 11 11 12 16 22 22 20 17 14 15 18 20 21 21 21 20 20 19 18 16 15 15 14 15 16 17 18
3 2 3 4 4 12 14 10 13 10 4 13 17 23 26 21 13 10 11 13 15 17 18 18 18 20 17 16 19 21 20 21 20 20 18 17 16 15 15 15 16 17 18 19
1 2 5 3 1 4 6 5 7 12 12 16 13 10 9 7 4 5 8 11 13 14 16 20 20 19 21 19 20 22 22 22 21 21 19 18 17 16 16 16 16 17 18 19
2 3 3 1 8 8 3 3 5 5 7 5 9 3 4 5 4 7 10 13 17 17 19 18 18 18 24 23 21 22 22 21 20 20 19 17 16 16 16 16 16 18 18 17
3 3 5 7 13 9 1 4 11 4 6 6 3 4 1 3 5 9 11 12 13 13 12 12 16 19 22 25 22 19 19 19 19 20 19 16 17 17 17 17 17 17 17 15
3 2 5 16 6 4 9 20 11 4 2 2 2 0 2 4 7 9 10 9 7 6 8 10 10 13 18 23 20 17 17 18 18 19 18 18 16 16 17 17 17 17 16 14
5 3 3 3 2 11 17 14 19 12 4 1 1 1 2 4 4 6 7 8 4 3 4 8 12 14 14 20 22 18 17 18 17 17 17 15 15 15 16 17 18 17 16 15
2 2 4 3 4 5 15 20 19 14 7 6 6 5 4 2 1 3 4 5 5 0 0 0 2 7 10 17 17 15 14 16 15 15 15 15 15 15 15 15 17 17 16 14
4 5 2 8 7 12 13 19 21 14 11 7 8 8 6 4 3 2 4 6 6 6 3 4 5 7 9 11 12 12 13 13 13 13 14 15 15 14 13 13 15 15 14 14
4 2 3 8 14 17 14 12 18 20 15 5 7 7 6 6 5 3 3 3 5 6 6 6 6 6 6 7 7 8 9 11 12 14 14 15 14 13 13 11 12 13 13 15
4 11 16 20 24 19 13 15 14 17 14 8 6 6 7 6 5 4 4 3 2 3 2 3 3 2 3 4 5 8 8 10 11 15 16 14 15 13 13 12 12 13 13 14
18 13 13 9 10 11 15 16 13 15 13 8 6 8 8 8 8 5 1 2 3 3 3 2 0 2 4 7 10 11 12 13 13 13 14 14 15 14 14 14 14 14 12 13
13 14 13 14 11 9 11 11 12 14 13 10 9 9 10 10 7 5 4 4 4 3 2 1 2 3 5 7 9 11 13 14 13 14 14 14 14 15 15 15 15 14 14 14
13 12 11 9 9 12 13 10 9 10 9 9 9 10 10 9 7 6 5 5 4 5 5 6 7 7 8 9 10 12 12 13 14 15 15 15 15 16 15 15 15 15 15 15
10 10 13 10 13 15 15 10 9 7 7 8 8 8 7 7 7 6 5 5 7 8 8 8 7 8 7 8 8 10 10 11 12 12 13 13 14 15 16 16 17 17 17 15
7 8 9 11 14 15 12 7 6 6 8 8 7 7 7 8 7 6 7 7 7 7 6 6 7 8 8 8 7 8 8 8 8 9 10 11 12 14 15 16 17 18 18 17
6 7 7 10 11 8 6 5 6 8 9 9 8 9 8 7 7 6 6 5 5 6 6 7 7 7 7 8 8 8 7 7 8 9 10 11 13 14 14 15 16 17 17 18
5 7 8 8 7 7 7 7 7 7 8 8 8 7 7 4 5 5 5 5 5 5 5 5 5 5 5 5 5 6 7 8 10 10 11 12 11 12 14 15 16 16 17 18
5 6 6 6 5 4 3 3 3 2 2 2 3 3 2 4 6 5 6 5 4 4 3 3 3 4 4 4 4 4 4 4 4 5 6 8 9 11 12 13 13 13 14 15
2 3 3 3 2 2 3 5 6 5 4 5 4 4 4 5 5 5 5 4 4 3 2 2 2 3 3 3 3 4 4 5 5 6 6 7 7 9 10 11 12 13 14 16
2 3 2 1 1 2 3 4 5 5 5 4 4 4 5 5 5 5 5 4 4 3 3 2 2 2 2 2 3 4 5 5 6 7 9 10 11 12 13 14 14 16 17 17
2 4 4 4 4 5 4 6 6 6 7 8 6 6 6 6 6 6 5 5 4 4 4 4 3 3 2 2 2 4 5 7 9 10 12 13 14 15 16 17 18 18 19 20
3 5 7 9 11 11 11 12 13 12 10 8 9 9 9 9 8 7 7 7 6 6 6 5 5 4 3 3 4 6 8 10 12 14 15 16 17 17 17 18 19 20 21 21
10 11 12 13 14 14 13 13 13 12 12 12 10 11 11 10 10 9 9 9 9 8 8 7 7 6 6 6 7 8 10 13 15 17 18 18 17 16 15 16 17 18 19 21
10 10 10 10 10 12 13 14 15 14 13 14 14 11 13 13 12 12 12 12 11 11 11 10 9 9 9 9 10 11 13 16 18 19 17 15 15 16 16 17 18 19 20 21

GFSNGP_850_spd_099.txt.gz
Wind_Speed
9 9 8 9 8 9 12 11 8 4 8 6 6 5 5 5 3 1 4 6 7 7 4 4 6 6 8 12 19 21 21 22 20 19 20 20 20 20 19 18 19 21 18 16
5 7 7 12 9 10 12 6 13 5 6 5 1 9 6 9 5 8 13 11 12 13 14 14 13 12 11 12 15 20 22 23 21 21 22 21 21 22 20 18 16 14 14 15
4 4 2 3 8 11 9 10 7 10 10 3 2 8 10 13 14 14 13 13 12 14 17 18 18 15 15 14 14 18 20 21 23 23 24 23 22 19 16 15 13 13 14 16
3 4 2 5 0 7 12 5 11 6 6 11 17 24 29 24 21 19 13 15 15 15 16 18 20 20 20 20 17 17 20 21 21 21 20 20 19 16 16 15 14 14 15 16
2 3 5 1 5 3 4 1 1 8 13 15 16 12 13 13 13 12 10 13 15 15 17 20 21 21 21 23 21 17 19 20 20 20 19 18 17 16 15 14 13 14 16 18
2 2 2 1 7 15 2 0 9 15 7 5 9 3 5 9 8 7 8 10 14 15 17 20 19 18 19 23 23 19 19 20 19 18 18 17 15 15 14 14 15 17 18 18
2 3 6 4 11 12 2 3 21 19 13 3 1 4 3 4 4 5 6 9 11 12 13 13 14 18 20 20 21 18 16 17 18 17 17 15 16 16 15 16 17 17 17 17
3 2 6 8 5 3 4 9 15 22 19 15 6 2 1 2 4 5 6 7 8 7 7 8 10 10 15 17 17 17 15 16 18 17 18 19 18 16 16 16 17 17 16 17
6 4 0 3 5 4 6 9 18 25 23 18 10 6 4 4 4 4 5 6 6 4 4 5 8 8 8 11 14 17 15 14 16 17 18 17 16 16 15 15 15 16 16 17
2 0 2 3 2 5 10 12 13 18 25 20 14 11 8 4 4 2 3 4 6 3 2 3 1 4 6 7 8 13 14 13 15 16 16 16 16 16 15 13 13 15 16 17
5 4 3 6 2 8 13 12 13 16 20 24 14 10 9 5 5 2 2 4 6 7 4 2 5 6 7 8 8 10 11 12 13 14 14 15 15 14 14 13 14 14 14 14
4 1 1 7 10 17 19 17 12 15 20 20 13 10 7 5 4 5 2 2 4 6 6 7 5 4 5 6 8 9 10 11 12 13 13 13 14 15 15 13 15 14 13 13
2 6 15 22 24 22 20 17 14 16 16 20 13 7 7 4 5 5 2 1 0 2 3 3 4 5 5 6 5 6 7 8 9 10 11 12 14 16 16 14 15 13 14 14
10 7 8 10 11 15 13 12 13 16 14 17 12 7 6 7 6 6 3 2 1 2 2 2 1 0 1 3 5 7 9 11 12 13 13 14 15 15 15 15 15 14 14 14
5 11 12 15 13 10 12 15 12 12 12 14 9 7 8 8 8 8 6 4 3 2 1 1 2 3 4 5 7 9 11 13 14 15 15 14 14 15 16 16 16 15 14 14
10 10 8 10 8 10 13 14 12 10 11 10 9 9 10 10 9 8 7 6 5 5 5 6 8 8 8 9 10 11 12 13 14 14 15 15 16 16 16 16 16 16 15 14
7 6 9 11 11 12 15 12 10 10 8 5 7 8 9 10 10 8 7 7 7 8 9 10 10 9 8 8 9 8 8 10 13 14 13 13 14 15 15 16 17 17 17 16
7 7 7 9 12 13 11 9 6 6 5 9 10 8 9 10 12 9 8 8 8 8 8 8 7 8 9 10 9 8 7 8 8 9 10 11 11 12 13 13 14 15 15 15
6 7 7 9 11 10 9 8 7 8 8 7 9 9 8 9 10 8 7 7 7 7 7 8 8 8 8 8 8 8 8 8 9 9 9 10 11 12 12 14 15 15 15 17
4 5 7 8 9 8 7 7 6 5 5 6 5 6 7 8 8 7 5 6 8 8 7 7 7 6 6 6 6 6 6 7 9 10 11 12 13 14 13 12 14 15 17 18
3 4 5 6 6 6 6 7 7 6 5 4 4 5 5 6 6 5 8 8 8 8 7 6 5 5 4 4 4 4 3 3 4 5 6 7 9 10 12 13 15 16 16 16
2 2 2 2 3 3 3 4 5 5 4 4 5 5 7 7 8 8 9 9 8 8 7 6 5 4 4 3 3 3 2 2 3 4 4 5 6 7 8 10 11 12 13 14
4 4 3 4 3 2 3 3 4 4 4 4 5 6 7 8 8 9 8 8 7 8 7 6 6 5 4 4 3 2 2 3 5 6 8 9 10 11 12 13 13 15 16 16
3 4 5 6 6 6 6 7 9 10 10 9 7 6 8 9 9 9 9 9 9 9 8 8 7 6 6 5 4 3 4 5 7 9 11 13 13 14 14 15 15 16 17 17
3 5 6 8 10 12 12 12 14 14 14 14 13 13 10 10 10 10 9 10 11 10 10 9 9 8 8 7 7 6 7 8 10 12 14 15 15 15 14 13 14 14 15 16
7 9 10 12 13 13 13 15 16 14 13 12 12 12 14 13 11 12 11 11 12 12 11 11 11 11 10 10 10 10 10 11 12 15 16 17 15 13 12 13 14 15 17 18
9 9 8 6 7 8 9 10 12 13 14 16 17 14 14 14 13 13 13 14 15 14 13 14 14 14 14 14 14 13 13 14 15 17 18 16 14 13 14 15 15 15 16 16

GFSNGP_850_spd_102.txt.gz
Wind_Speed
9 10 8 6 8 6 6 4 4 1 8 7 3 3 2 2 7 6 4 3 3 4 1 2 1 1 1 3 7 12 15 16 15 14 15 15 15 16 16 15 12 13 14 13
4 7 9 10 8 11 13 8 10 8 6 5 5 3 5 5 2 0 7 10 9 10 10 10 8 7 7 6 7 9 13 16 16 17 17 17 17 18 18 16 13 14 11 10
4 5 2 3 6 8 3 4 4 9 3 4 11 5 5 5 11 15 17 16 11 11 12 13 15 14 10 9 10 10 12 16 19 20 19 19 19 19 19 17 14 11 10 12
3 5 1 5 5 2 6 5 4 7 8 8 16 30 23 21 19 17 15 12 8 12 13 14 14 14 16 17 16 14 12 16 20 21 20 20 20 20 18 16 12 11 11 12
2 2 5 3 5 4 2 3 7 6 9 17 21 18 14 17 16 12 10 11 13 15 17 20 19 18 19 19 18 20 17 16 20 22 22 22 21 18 17 14 12 11 11 12
2 1 2 1 6 5 4 2 10 12 10 11 3 2 4 13 9 7 7 8 11 14 18 20 19 20 19 19 21 22 19 16 18 19 19 18 16 16 15 14 13 12 12 13
1 2 6 4 12 7 2 2 12 14 14 16 5 7 5 1 3 6 8 9 12 14 15 16 16 17 18 21 19 18 17 15 17 18 17 16 16 16 14 14 13 12 12 14
3 2 5 5 4 2 0 2 6 13 18 19 16 14 8 4 5 6 7 8 10 12 12 12 12 12 12 14 15 16 17 15 17 18 17 18 17 16 16 14 12 12 12 13
7 5 3 2 2 5 0 5 8 12 15 18 19 15 10 9 7 6 6 7 8 8 8 9 10 9 7 8 12 13 15 14 15 16 16 17 17 16 15 13 12 12 11 11
1 1 0 3 3 3 5 9 10 11 15 15 20 19 12 8 6 5 3 4 5 5 4 5 4 4 5 5 8 11 15 13 13 14 16 16 16 16 15 13 12 12 13 13
4 5 3 3 5 3 10 14 15 13 13 14 16 19 13 8 7 5 3 3 4 4 3 2 6 5 6 9 11 13 12 12 12 13 14 15 14 14 13 13 13 14 12 11
4 3 2 5 7 17 24 23 22 15 16 15 15 18 12 6 6 4 3 2 1 2 3 4 4 4 5 6 6 7 9 10 11 12 13 13 14 14 14 13 14 15 14 12
3 2 10 14 13 11 15 19 15 14 15 17 16 14 12 7 7 3 3 2 1 1 1 3 4 4 4 4 5 5 7 8 9 11 12 13 12 12 12 13 15 16 15 13
4 3 5 6 12 14 14 13 16 13 13 13 14 14 11 7 7 3 7 4 1 1 1 2 2 2 1 1 2 3 5 7 9 11 13 13 13 12 12 13 14 14 13 13
2 4 7 12 13 10 11 12 15 10 9 11 12 10 8 7 7 3 7 5 3 3 1 0 1 2 3 3 4 5 7 9 12 13 13 13 13 13 13 14 14 14 14 14
5 5 5 7 9 9 12 13 10 10 9 9 7 5 6 7 8 8 7 8 7 4 5 5 6 7 8 8 7 7 8 8 11 12 12 13 14 14 14 14 14 14 14 13
3 2 3 5 7 10 11 10 7 8 7 7 6 4 3 5 5 7 6 6 6 7 8 9 9 9 9 8 9 9 8 8 8 9 11 12 11 12 13 13 13 13 13 13
4 4 4 6 8 10 10 8 7 6 7 6 8 8 6 7 8 8 10 9 9 9 9 9 8 8 8 9 9 9 9 8 7 8 8 9 9 9 10 10 11 11 11 11
4 4 5 6 8 9 9 8 9 9 8 7 7 6 5 6 7 9 9 9 9 8 9 9 9 9 9 9 9 8 8 8 7 8 8 8 8 8 9 10 11 12 13 14
4 4 5 7 7 8 7 8 9 8 7 7 6 6 6 6 7 9 9 9 8 8 8 9 9 8 8 7 7 6 6 5 5 5 7 7 8 9 11 12 13 12 12 13
4 4 5 5 6 7 6 5 7 7 6 6 6 6 5 5 5 6 7 9 8 8 8 9 8 7 6 6 5 4 4 3 3 3 2 2 3 5 5 6 7 9 9 10
4 3 2 4 4 5 4 5 6 6 5 5 5 6 7 7 7 9 10 10 10 9 9 8 8 7 6 5 4 2 2 2 2 3 4 4 4 4 4 6 7 8 9 10
6 4 5 6 5 5 5 6 6 7 7 8 8 8 8 8 8 9 8 9 9 9 9 8 8 7 6 4 3 3 1 0 1 3 5 6 8 9 9 10 10 11 11 12
4 5 6 7 8 8 8 9 11 12 13 13 12 13 14 13 11 10 9 9 9 9 9 9 8 8 7 6 5 4 3 3 3 5 8 10 11 12 12 11 10 10 10 11
4 4 5 7 9 11 13 15 17 16 15 15 14 14 15 15 16 12 11 10 10 10 10 9 10 10 9 8 8 7 6 6 7 8 10 12 13 13 11 9 9 10 10 12
3 5 8 10 11 11 11 11 13 13 14 17 16 15 15 15 16 17 15 12 12 12 12 12 12 12 11 10 10 10 10 9 10 11 12 14 15 12 10 10 11 11 11 11
6 8 8 6 5 6 8 10 12 11 12 14 15 13 15 16 16 16 17 17 17 17 17 16 15 12 12 13 13 13 13 12 13 13 14 15 15 13 11 11 11 11 10 10

GFSNGP_850_spd_105.txt.gz
Wind_Speed
4 6 4 11 13 8 1 2 3 1 3 8 7 6 2 4 4 10 13 12 9 7 6 8 8 7 6 5 6 10 12 13 14 14 14 14 15 16 17 17 17 17 15 13
4 4 5 5 9 8 8 7 10 9 8 8 8 9 6 2 9 6 7 11 14 8 3 1 2 1 1 2 4 6 8 11 14 15 17 18 17 17 19 19 18 14 12 13
4 6 4 3 4 3 2 2 3 3 2 5 8 6 12 10 10 10 13 11 7 7 7 6 6 7 7 7 8 7 9 12 15 16 19 20 20 19 19 19 16 13 14 12
3 5 4 4 2 1 6 5 9 6 8 10 12 18 21 14 17 18 12 8 6 6 8 9 9 9 9 13 14 12 12 12 15 18 20 20 19 19 20 19 17 15 13 12
1 2 4 2 3 3 2 1 6 7 10 14 18 6 8 9 9 7 6 5 6 9 12 13 13 14 14 15 15 17 17 16 16 18 20 21 20 20 20 18 16 15 13 11
2 1 2 2 2 2 3 1 5 8 9 14 15 4 3 15 6 4 4 5 6 8 11 13 16 18 18 18 19 20 20 19 17 16 19 21 20 20 18 17 17 15 13 11
0 2 6 5 7 0 1 1 3 6 9 11 5 5 15 12 7 7 7 7 9 10 12 13 14 16 17 19 21 20 17 18 18 17 19 19 19 19 19 19 17 15 12 10
3 1 5 2 3 0 1 1 4 7 10 14 18 18 16 10 9 9 8 8 10 10 11 12 12 12 12 14 15 17 17 18 18 18 19 19 19 19 19 17 15 13 11 9
7 5 3 2 3 3 2 2 5 10 11 12 14 18 20 16 10 10 8 8 8 9 8 9 11 10 9 9 10 12 15 18 17 17 18 19 19 19 19 17 15 13 11 8
1 2 5 4 5 6 3 2 7 10 13 12 13 15 18 17 11 9 7 7 7 7 6 6 7 5 4 5 7 11 15 16 15 15 16 17 18 18 17 16 14 13 11 10
5 6 4 2 7 7 7 14 18 17 15 14 13 14 12 19 10 8 6 6 6 5 5 5 6 7 3 2 6 11 15 16 15 13 14 15 17 16 15 14 13 12 13 12
5 6 3 3 4 11 13 10 12 15 17 13 13 13 12 16 9 7 6 5 6 5 5 5 5 5 5 5 6 7 10 12 12 12 13 15 15 16 16 14 13 12 11 11
4 6 3 5 7 4 8 9 10 13 13 12 11 11 11 12 7 6 6 4 7 5 1 2 4 4 4 4 4 3 3 5 8 9 10 12 14 14 13 12 13 13 11 12
6 3 1 2 4 6 7 10 13 14 10 6 6 7 10 7 5 6 6 7 6 4 1 1 1 1 1 1 1 2 4 7 10 10 12 13 13 14 14 15 13 11 11 11
6 5 4 4 6 4 6 11 12 8 8 6 6 7 6 5 5 6 3 4 5 2 3 4 2 2 3 3 3 4 4 5 7 9 11 13 15 16 16 14 13 12 12 12
8 6 3 3 5 4 7 7 8 8 9 8 5 3 4 6 7 10 8 8 6 6 7 7 6 6 7 7 7 7 7 8 8 9 11 11 12 14 14 14 14 13 13 12
7 4 8 4 3 4 5 5 5 7 7 7 8 6 5 5 7 7 8 8 10 9 9 8 8 8 9 8 8 8 9 9 9 7 7 10 12 12 13 14 14 13 12 12
5 5 6 5 5 5 5 6 6 7 8 8 8 8 6 7 8 9 9 9 10 11 11 10 8 8 8 8 9 9 9 9 8 7 7 8 9 10 11 11 12 12 11 9
8 7 7 6 6 8 6 5 6 7 7 7 8 6 6 6 7 8 9 9 9 10 11 10 8 9 9 9 8 7 8 7 8 8 8 8 8 7 7 7 8 8 9 9
8 7 7 6 6 6 7 6 6 8 8 8 7 6 6 6 7 8 8 9 9 9 8 8 8 9 8 7 6 5 4 4 4 5 7 9 9 9 9 10 11 11 12 11
8 7 5 4 5 5 7 6 7 8 8 8 8 7 8 7 7 7 7 8 8 8 9 8 8 8 7 6 5 3 2 1 1 3 4 5 6 7 8 8 8 8 7 7
8 7 6 6 5 5 6 5 6 6 6 7 8 9 9 10 10 10 10 10 9 8 9 9 8 8 7 6 5 4 3 3 4 4 4 3 2 2 3 4 5 6 7 7
10 9 8 7 6 6 6 6 6 7 8 9 10 11 12 12 12 13 12 11 9 9 9 9 9 8 7 7 6 6 5 5 5 4 2 1 2 3 5 5 6 6 7 6
10 8 8 7 8 8 8 8 11 12 15 15 16 15 15 16 16 15 14 13 12 12 11 10 10 9 9 9 8 8 7 7 6 4 3 3 5 6 7 6 5 4 4 4
7 6 5 5 6 8 10 11 12 13 14 14 13 13 15 15 16 16 16 17 17 14 12 12 12 11 11 10 10 10 9 8 6 5 6 6 7 9 8 6 5 5 6 6
4 3 5 6 7 7 5 6 6 7 10 11 10 10 12 14 16 17 16 14 16 19 19 16 14 13 13 12 12 11 10 9 10 10 9 8 9 10 8 7 7 7 7 7
5 6 6 5 5 4 4 5 7 7 9 12 14 12 14 14 14 15 15 14 16 17 16 15 17 18 18 15 13 12 12 13 13 12 11 11 11 11 10 9 9 8 7 6

GFSNGP_850_spd_108.txt.gz
Wind_Speed
6 6 8 9 9 7 5 6 3 4 7 10 9 11 9 5 6 8 12 12 9 9 10 11 11 9 8 10 13 15 15 16 16 15 15 16 16 16 17 17 19 20 21 20
2 5 4 4 6 8 10 10 10 10 12 11 17 10 10 5 4 6 11 14 9 6 5 5 6 5 6 7 8 11 14 15 16 17 17 17 18 19 20 22 22 22 22 20
3 7 2 2 4 2 0 0 4 4 5 9 12 10 10 11 8 12 12 12 7 4 1 3 4 5 5 6 7 7 9 12 15 17 18 19 20 20 20 22 22 22 19 16
2 4 1 2 4 2 5 4 2 5 8 12 14 17 14 11 11 12 10 8 7 4 3 2 3 5 7 10 11 11 12 13 15 17 19 20 21 22 21 22 21 20 18 16
2 2 3 3 2 2 2 3 1 3 7 13 16 2 11 11 9 7 6 5 5 5 6 8 10 9 8 10 12 14 16 17 17 20 21 23 24 24 24 24 24 22 20 18
1 1 1 4 2 2 3 4 2 2 5 10 14 2 5 18 10 7 8 8 7 8 10 11 13 13 14 14 16 16 18 21 22 20 20 23 25 25 24 25 21 20 21 20
3 3 4 4 1 5 3 4 5 1 3 7 3 5 13 16 8 9 10 10 9 7 9 11 13 15 16 17 17 18 19 19 20 21 22 23 22 23 23 22 23 23 21 18
3 3 2 6 4 4 3 2 2 2 4 6 8 11 11 14 12 8 8 8 8 7 8 9 11 12 14 16 16 17 18 19 19 22 22 21 23 22 23 24 24 22 19 17
5 1 3 4 2 3 2 2 1 3 5 7 9 11 14 15 18 11 9 9 9 9 8 8 9 10 11 12 12 14 15 18 20 22 22 22 22 22 23 23 22 20 19 17
2 4 10 9 7 6 5 4 3 6 10 10 10 11 12 15 15 13 9 8 8 9 9 9 9 9 8 8 8 10 12 16 19 20 20 20 20 21 22 23 22 22 20 16
5 7 2 8 9 7 7 7 11 14 14 16 15 12 11 12 13 11 9 8 8 8 8 8 7 8 7 5 4 6 10 14 17 17 18 18 20 21 22 21 19 18 17 15
3 7 2 4 8 7 8 9 7 8 11 11 11 13 12 12 12 9 8 7 7 8 9 6 5 5 5 4 3 2 7 12 14 16 18 18 19 20 20 20 19 18 15 12
3 11 5 5 5 5 4 5 7 9 10 14 12 10 11 11 12 10 8 7 7 7 8 7 3 3 3 2 4 4 3 4 8 12 14 15 17 18 19 19 18 17 15 15
10 9 3 4 2 3 5 5 8 7 7 9 8 7 9 10 9 8 8 7 8 10 7 5 2 1 1 0 1 3 5 6 7 8 11 12 14 15 16 16 17 16 16 15
12 9 5 4 4 3 4 5 5 3 6 6 7 7 9 11 10 9 9 7 8 7 9 7 5 5 4 4 4 5 4 6 8 11 13 14 14 16 17 18 18 17 16 14
14 9 7 5 5 5 2 3 3 3 4 4 5 4 6 7 8 9 10 10 10 8 8 8 10 11 10 10 10 10 9 9 10 11 13 15 15 16 17 18 18 17 16 14
16 9 11 10 8 5 4 4 4 4 4 5 5 5 5 6 8 9 9 9 11 12 13 13 14 14 13 11 11 12 11 12 13 12 12 12 13 14 14 15 16 17 16 16
9 6 11 9 9 7 6 6 5 5 5 6 6 7 7 7 8 10 11 12 12 13 14 15 15 15 14 10 12 12 13 13 14 14 13 12 11 13 14 14 15 15 15 14
12 12 12 11 9 8 6 6 5 4 5 5 6 6 7 8 8 8 10 11 12 13 13 14 14 15 14 9 12 13 12 12 13 13 13 13 12 11 11 11 11 11 10 11
14 10 10 10 8 7 6 7 6 6 7 7 6 6 6 7 7 8 10 10 10 11 12 11 12 11 10 11 12 11 11 10 11 11 12 12 13 12 11 10 9 10 10 11
12 11 10 8 6 6 7 7 6 6 7 6 6 6 6 7 8 9 10 11 9 11 10 9 9 10 11 11 10 10 10 9 9 10 11 13 13 13 13 13 13 13 14 14
13 12 10 10 10 8 8 7 6 6 6 5 6 7 8 8 10 10 11 13 12 13 12 12 10 10 11 12 10 9 9 9 8 7 7 7 7 7 7 8 9 10 10 11
12 11 10 9 8 7 7 7 7 7 8 10 11 13 14 15 14 16 15 13 13 13 12 12 12 13 12 12 13 11 11 10 9 8 7 6 6 6 6 8 9 10 11 11
12 10 10 9 9 8 8 7 9 10 13 14 14 15 16 15 14 13 14 14 15 15 14 13 13 13 13 13 13 13 12 12 11 10 8 7 6 6 6 8 9 10 10 10
12 10 9 8 6 6 7 8 8 8 8 7 7 9 11 12 15 15 15 14 14 15 17 18 17 15 15 14 14 13 13 14 13 11 10 9 8 7 8 8 9 9 9 10
10 8 6 4 5 5 5 4 4 5 6 6 6 9 10 11 13 14 15 15 15 15 16 15 15 18 19 18 16 16 15 15 15 14 13 11 11 10 10 10 10 10 10 10
9 7 5 5 5 5 5 4 3 3 5 7 9 10 12 13 14 15 16 16 16 16 17 17 17 16 17 18 21 20 19 19 19 16 14 14 15 13 12 11 11 12 12 11

GFSNGP_850_spd_114.txt.gz
Wind_Speed
5 3 4 3 4 4 3 4 2 6 6 9 10 10 14 16 17 21 22 22 21 19 19 17 15 9 5 7 11 15 17 21 13 13 15 18 17 17 18 18 18 18 18 17
3 3 5 2 2 2 3 5 1 5 1 9 14 15 18 20 21 19 21 21 18 16 14 15 15 14 10 5 3 8 13 17 14 19 24 19 16 15 15 15 15 16 17 18
0 1 3 4 2 1 2 2 2 2 4 7 6 9 13 17 17 20 19 17 15 15 14 13 12 9 9 8 5 5 5 8 13 16 16 15 14 15 14 15 16 16 18 19
3 2 4 3 2 1 4 0 2 2 4 6 8 13 14 14 17 17 15 13 13 12 11 11 9 8 7 6 4 2 1 5 8 10 11 12 13 13 14 14 16 17 20 21
1 2 1 5 4 3 2 5 6 4 3 6 13 12 12 12 9 10 11 11 12 10 9 8 7 7 7 7 5 4 5 6 7 8 10 11 13 13 14 16 17 18 20 21
3 1 1 3 4 3 4 4 6 6 2 4 12 2 2 11 13 11 11 12 12 12 12 12 11 11 9 6 6 8 10 11 13 13 14 14 14 15 16 17 18 20 21 21
3 2 5 7 8 6 1 4 11 8 3 3 3 2 8 7 9 12 9 9 11 10 10 12 14 13 11 10 10 10 12 15 17 18 18 17 17 18 19 20 21 21 22 22
1 1 6 15 6 4 5 5 9 8 6 6 8 7 6 7 8 9 11 8 7 9 9 8 11 13 13 13 13 14 14 15 16 19 19 20 21 21 21 22 22 23 24 24
5 5 1 19 6 6 5 1 7 5 3 5 6 8 8 7 8 8 8 10 7 7 8 9 10 12 13 14 15 14 14 13 13 15 18 21 22 22 23 23 24 24 24 25
3 4 7 13 9 6 4 5 7 5 6 6 9 10 11 10 10 10 6 9 7 5 7 8 10 11 12 13 13 13 11 10 10 13 15 19 19 20 22 23 24 25 26 26
5 8 2 13 14 12 10 8 6 4 6 9 10 10 10 13 12 10 11 9 7 7 8 9 10 11 12 12 12 11 10 9 8 9 12 15 16 17 19 21 21 22 24 25
5 11 8 1 16 14 11 7 5 7 4 6 7 9 11 13 10 10 13 10 7 7 8 10 12 14 13 11 9 6 6 7 8 8 11 15 17 16 18 21 21 21 22 20
6 11 7 11 13 11 10 8 6 5 5 6 6 7 7 7 6 10 11 10 7 7 7 12 14 14 11 9 7 6 5 5 5 4 5 9 14 15 15 17 19 20 20 19
13 15 9 14 8 9 9 8 7 5 3 3 5 5 5 6 7 10 9 9 8 7 8 10 10 9 8 8 8 7 7 8 8 8 8 9 11 13 13 16 16 18 20 21
20 16 8 12 11 10 9 10 6 4 2 4 4 4 4 6 8 7 9 10 9 9 9 11 11 11 12 14 14 12 11 11 11 10 10 11 12 12 13 14 14 16 17 19
22 20 14 14 12 11 12 10 8 6 3 3 4 4 5 5 6 7 9 10 9 11 13 14 14 14 15 16 15 16 16 16 15 14 14 14 13 14 15 15 15 16 18 19
28 21 20 17 16 14 14 11 9 8 5 3 6 6 7 8 7 8 9 10 11 12 13 15 16 16 17 18 18 18 18 17 16 15 14 15 15 15 15 16 17 18 19 19
25 21 21 16 16 15 15 13 10 8 7 7 8 7 8 9 10 11 12 12 12 12 13 14 14 14 15 15 16 17 18 19 18 16 17 16 16 17 17 17 17 17 17 18
23 19 17 14 14 16 15 12 10 9 8 6 6 8 10 10 10 10 12 13 12 14 12 11 11 12 12 13 14 14 15 17 18 18 15 12 13 14 14 15 16 16 16 17
24 19 18 18 17 16 15 12 11 9 8 6 7 8 8 8 9 9 10 11 12 12 13 13 13 13 13 13 14 14 14 15 15 13 13 13 13 15 16 16 15 14 14 15
24 22 20 18 15 12 10 10 10 8 6 6 6 6 6 7 8 10 12 14 12 14 15 16 15 15 16 16 15 15 15 14 13 14 15 13 13 14 14 13 12 12 11 11
25 22 19 17 13 13 12 10 8 7 7 7 7 8 10 11 13 15 15 18 16 15 16 16 17 16 16 16 17 18 16 16 16 13 13 13 13 13 13 14 14 14 15 15
23 19 18 17 15 13 12 10 9 9 8 7 10 12 14 14 14 16 16 13 15 16 17 17 17 17 17 19 20 19 18 19 18 17 15 13 10 10 9 9 11 12 13 14
22 19 17 16 14 13 12 10 9 9 9 9 10 11 11 10 9 9 11 12 14 15 16 17 17 18 18 19 20 22 21 19 18 17 16 14 11 8 10 10 10 10 11 12
19 17 17 16 14 12 11 10 8 7 8 7 6 7 8 7 8 9 11 12 14 16 17 17 18 18 19 20 20 20 20 20 19 17 17 17 15 14 12 12 10 9 9 10
20 17 15 14 13 11 9 8 8 7 7 6 6 6 6 6 8 11 13 16 18 19 20 20 21 21 21 20 20 20 20 20 19 20 19 18 18 19 18 15 14 14 12 8
18 18 16 14 11 9 8 8 8 7 7 7 7 8 8 10 13 15 18 20 21 22 23 23 22 23 23 23 22 21 19 20 20 20 21 22 19 20 19 19 18 18 17 10

GFSNGP_850_spd_117.txt.gz
Wind_Speed
2 3 2 4 3 4 3 4 4 3 1 5 7 6 11 20 22 25 25 24 22 21 20 20 17 11 6 1 6 7 6 11 7 10 6 4 9 14 17 17 16 16 16 17
4 2 4 2 5 4 3 3 2 2 3 4 10 13 18 19 18 20 20 19 18 17 17 17 16 16 13 9 3 4 10 10 8 11 16 13 9 13 13 13 13 13 14 14
3 2 4 5 4 3 1 2 4 2 3 3 3 7 11 13 15 16 15 14 16 16 14 14 14 13 12 11 9 6 2 4 9 9 11 16 19 15 14 13 13 14 14 14
3 4 4 5 2 2 3 3 4 3 3 4 5 3 8 8 9 10 11 12 13 12 10 10 9 7 8 9 7 6 4 1 2 5 8 11 11 12 12 12 13 14 14 14
3 2 4 1 4 4 4 4 7 6 5 3 3 4 2 7 10 10 9 10 10 10 9 9 9 8 6 4 3 3 3 4 4 4 6 8 10 12 14 14 14 14 15 16
1 2 4 4 4 6 4 3 8 9 7 4 3 3 2 7 8 9 10 10 10 10 10 10 11 11 8 5 4 4 5 7 8 8 9 11 12 12 14 15 15 15 16 18
2 2 6 4 8 7 2 5 12 13 9 6 2 2 7 8 9 10 10 12 11 10 11 9 9 10 11 10 9 8 8 10 12 15 14 15 16 17 17 17 18 18 18 19
1 1 6 13 7 6 5 8 13 13 12 7 5 6 4 4 7 10 10 11 10 9 9 10 10 10 10 10 11 12 13 13 13 15 18 18 18 19 20 20 20 20 20 20
8 5 5 22 5 10 12 11 10 13 11 9 7 7 5 5 6 8 9 11 11 7 6 8 10 12 13 13 14 14 13 13 13 14 15 17 19 20 21 21 22 23 23 23
2 3 8 18 12 12 11 10 12 13 10 9 9 9 10 11 12 8 10 10 11 9 9 9 9 12 14 14 15 15 15 12 11 11 11 13 16 18 20 22 23 23 24 25
6 9 7 14 24 19 15 11 11 9 8 8 9 10 10 10 12 12 10 11 12 9 12 11 13 15 18 17 15 14 12 11 10 9 11 11 14 15 17 20 21 22 23 24
7 13 8 5 19 22 20 15 11 9 7 7 7 7 6 10 9 9 9 11 12 11 11 11 14 17 18 18 16 12 9 11 10 9 10 12 14 14 14 16 21 23 23 24
7 12 16 8 13 19 17 13 11 9 9 6 5 4 5 5 4 5 8 10 10 10 9 10 10 15 15 14 14 12 11 10 11 11 8 9 11 12 14 14 16 21 23 21
25 17 11 17 12 18 15 13 11 9 7 7 5 4 4 5 6 8 9 9 9 11 10 10 10 12 13 14 15 14 12 13 13 13 13 12 12 13 13 12 14 17 19 18
31 26 19 18 16 18 16 14 13 11 10 8 8 4 3 4 7 6 5 8 9 11 10 11 12 13 14 14 14 15 17 19 20 19 17 16 15 15 15 15 15 13 15 15
29 27 21 19 21 20 19 18 16 15 12 10 8 8 6 5 5 6 6 9 9 11 13 13 13 14 15 15 17 17 18 18 19 21 20 19 18 18 18 18 18 17 15 15
29 24 25 24 26 25 23 19 17 16 13 11 9 9 8 7 6 8 9 9 10 12 14 14 14 15 16 17 17 17 18 19 20 21 21 21 19 18 17 18 19 19 18 17
31 28 31 31 29 25 22 20 18 17 14 11 11 9 8 8 9 11 11 12 12 11 11 12 13 13 13 14 14 15 15 16 17 19 20 22 22 20 19 18 18 18 18 17
31 26 26 26 24 22 21 22 20 15 14 12 11 9 8 8 9 8 9 10 10 11 10 10 10 12 12 12 13 13 14 15 16 16 17 16 17 20 19 15 15 16 16 16
29 24 22 24 22 22 22 21 18 16 13 13 9 8 8 7 7 7 8 8 9 11 11 12 13 13 14 14 15 15 15 15 16 15 16 16 16 16 15 14 15 16 17 15
29 25 25 25 23 21 21 20 18 16 13 10 9 9 7 6 6 8 10 12 10 14 14 14 15 15 15 15 16 17 17 18 17 17 17 17 15 15 15 15 14 14 12 12
31 29 27 25 23 21 19 15 14 13 11 10 9 9 8 8 9 10 12 14 12 11 12 14 14 15 15 15 16 16 17 18 18 19 19 19 17 15 13 14 15 14 14 12
31 30 27 25 22 18 17 15 13 12 11 10 9 9 10 10 10 10 7 7 9 10 11 13 14 15 16 17 18 17 18 18 18 18 18 18 16 15 12 8 9 11 13 14
30 27 24 21 19 19 18 16 14 12 10 10 10 9 9 7 6 6 6 7 9 10 12 13 14 15 16 18 18 19 18 18 18 18 18 18 17 14 13 11 11 9 9 9
29 26 24 23 21 17 15 14 12 11 10 9 9 7 7 6 5 5 6 8 11 13 16 17 19 20 20 20 19 19 19 18 17 17 17 18 18 17 16 16 16 12 10 10
28 26 24 19 15 15 14 13 11 10 9 9 7 7 6 6 7 8 10 13 16 19 21 22 22 23 23 24 23 22 21 19 18 18 18 18 18 18 17 18 18 17 16 13
24 20 20 19 17 15 13 11 10 10 9 8 8 7 7 8 10 13 16 19 21 23 24 24 24 24 23 22 23 23 22 22 20 19 18 18 18 18 20 18 20 21 19 16

GFSNGP_850_spd_120.txt.gz
Wind_Speed
2 4 3 3 4 6 4 3 3 3 3 1 3 3 7 11 15 18 21 23 23 23 22 21 19 16 10 4 1 2 2 7 12 10 4 2 8 10 11 14 14 15 18 26
4 4 4 3 4 3 3 2 3 3 3 1 4 2 9 10 11 14 16 17 17 17 18 19 19 18 15 14 9 4 4 6 3 6 6 8 12 5 4 8 12 13 15 17
3 6 6 5 4 4 2 3 3 3 4 1 2 3 4 6 8 10 12 15 15 14 13 14 15 14 13 13 13 11 7 1 4 3 4 4 7 15 10 14 11 9 10 11
2 4 4 6 3 1 4 6 5 2 3 5 0 2 4 5 7 8 8 9 10 12 12 11 11 8 8 9 9 8 7 6 3 3 5 6 9 12 13 15 15 12 11 10
2 2 5 3 4 4 4 5 7 6 5 6 1 2 7 2 5 8 8 8 8 8 9 10 10 9 7 6 6 5 4 3 3 3 4 5 7 8 10 12 14 13 12 12
1 1 4 3 2 5 4 4 6 10 8 7 4 2 4 2 3 5 7 8 8 8 7 8 8 9 9 8 8 8 8 9 9 9 9 9 10 11 11 12 13 14 15 15
2 3 7 5 7 6 1 5 11 15 13 10 4 7 2 5 5 5 5 8 8 7 6 7 8 8 9 9 10 10 10 12 13 14 15 15 15 16 16 16 17 17 17 17
1 1 6 10 5 6 5 4 12 15 15 15 12 9 9 6 5 5 6 6 8 8 7 6 7 7 8 9 10 11 12 13 14 14 16 17 18 18 18 18 19 19 19 20
8 6 5 26 8 18 7 7 12 15 14 15 12 12 11 11 10 7 6 7 8 8 6 7 8 10 11 13 13 13 12 12 12 12 12 14 16 16 17 18 19 20 22 22
2 3 13 22 29 17 17 15 14 12 14 14 14 13 13 13 14 13 11 9 8 9 6 7 9 11 14 16 17 16 13 11 11 11 10 11 11 13 16 17 18 19 22 23
6 11 15 22 24 28 21 17 15 14 15 15 14 14 13 13 12 13 15 13 11 10 9 8 10 12 14 18 19 15 14 12 13 12 10 9 9 11 13 14 18 20 20 21
7 14 8 9 7 27 26 24 18 16 16 14 13 11 9 9 8 9 10 11 12 11 11 11 11 12 14 17 16 16 15 14 15 14 14 13 13 13 13 14 15 17 19 23
12 11 16 12 11 13 27 23 18 16 14 12 11 8 7 7 6 6 6 8 10 10 12 12 11 13 13 14 15 15 14 14 14 14 15 15 16 16 15 13 15 16 18 22
31 25 12 15 11 15 21 20 17 14 13 12 10 9 7 8 8 8 8 11 10 8 11 14 14 13 14 13 15 16 16 16 17 18 18 18 19 19 19 19 18 17 16 18
34 33 34 21 20 18 21 21 20 18 16 14 13 11 9 8 10 11 11 9 10 11 12 14 16 15 16 16 18 19 20 20 19 19 20 20 21 21 21 21 20 20 19 19
16 26 32 29 25 25 25 25 22 19 18 15 15 15 12 11 11 11 9 10 11 12 13 14 16 18 17 19 20 21 21 21 21 22 22 23 23 23 22 21 21 21 20 18
24 24 29 30 32 31 31 28 24 20 19 18 14 12 13 12 11 11 11 11 12 14 14 15 15 16 16 17 17 18 18 18 19 19 19 20 21 21 21 22 23 23 22 19
40 39 35 31 34 35 32 28 23 21 22 18 15 15 14 14 13 13 14 13 12 13 13 13 13 15 15 16 16 16 16 16 16 17 18 18 19 18 19 19 21 22 23 22
31 37 34 28 26 30 30 28 25 23 22 17 17 17 15 13 11 11 11 11 10 11 10 10 11 13 14 15 16 17 18 18 18 18 19 19 19 19 19 18 18 19 19 18
22 29 32 25 23 27 28 25 24 24 21 19 18 16 13 11 10 10 10 9 8 11 12 13 14 16 17 16 17 18 18 19 19 20 19 19 19 20 20 19 17 16 16 17
20 26 29 25 25 27 26 24 25 25 22 20 18 14 11 10 9 9 10 12 10 14 14 14 14 15 17 17 18 18 18 18 19 20 21 21 21 20 18 19 18 15 15 16
19 25 27 25 26 27 25 23 23 22 21 18 15 13 12 11 10 11 12 13 12 11 10 11 13 14 15 16 18 19 19 20 19 20 21 21 21 21 19 18 17 15 14 15
21 24 25 26 27 26 25 23 22 20 18 16 14 13 12 11 11 11 9 10 9 9 9 10 11 13 15 17 19 20 20 21 21 20 20 20 21 20 19 17 15 13 11 13
25 26 26 26 25 25 24 22 19 16 15 14 13 12 11 11 10 8 7 7 7 8 10 13 16 18 20 22 23 23 22 22 22 21 20 20 19 19 18 17 17 15 15 14
27 28 28 28 27 25 22 21 19 18 16 14 12 12 11 9 8 8 8 8 9 12 15 18 20 22 24 25 26 26 26 25 23 21 21 20 20 19 19 18 18 18 17 17
31 31 30 28 26 22 22 23 20 17 15 14 12 11 9 9 9 8 9 11 13 17 21 23 24 25 25 25 24 24 24 24 23 22 20 20 20 19 19 19 18 18 19 17
31 30 29 25 22 21 22 19 18 17 14 13 11 10 9 9 9 10 11 14 18 21 23 23 23 22 22 22 22 23 24 24 25 25 23 22 21 20 19 18 19 19 20 21

GFSNGP_850_spd_126.txt.gz
Wind_Speed
5 6 3 4 7 4 2 4 4 2 4 5 6 6 6 11 14 17 20 23 25 27 28 27 28 28 25 22 23 18 16 15 13 10 8 2 3 1 2 2 4 9 13 26
3 4 4 5 7 6 4 3 5 4 5 6 3 7 12 10 9 12 16 19 19 21 23 25 25 25 24 24 21 16 14 11 9 8 6 4 3 4 3 1 4 6 7 6
4 2 3 5 6 5 3 4 4 3 5 4 4 5 6 8 10 11 11 13 15 17 19 21 21 20 21 20 18 17 12 10 7 5 3 4 4 1 1 1 2 2 1 4
4 5 3 5 2 4 6 7 8 4 4 6 4 4 6 5 3 7 9 10 12 12 12 12 13 14 15 14 14 13 13 12 10 9 7 6 3 2 3 5 5 5 5 4
1 2 6 1 3 5 4 5 6 8 6 8 5 4 12 10 6 5 7 8 9 11 11 10 10 10 10 9 10 11 11 11 10 9 8 7 7 7 7 7 7 8 9 9
1 2 2 2 2 2 2 4 6 10 9 10 9 1 4 5 8 5 5 6 6 7 8 7 7 9 10 12 12 10 10 11 11 11 10 8 8 8 8 9 9 10 12 14
1 3 7 5 4 4 2 5 6 12 14 18 6 11 4 8 8 6 6 5 6 6 6 6 7 9 11 13 13 14 12 11 10 10 11 12 11 11 12 13 13 14 14 13
2 1 4 10 5 6 5 5 6 11 14 20 18 10 10 9 9 8 7 7 6 6 6 5 4 4 7 10 12 13 12 11 12 12 11 11 11 13 13 14 16 17 17 16
8 5 3 22 12 13 7 8 9 12 12 14 14 16 13 12 11 11 10 8 8 7 6 6 4 3 6 7 10 13 12 10 10 13 15 15 14 14 15 16 17 18 19 20
2 3 11 27 29 28 24 23 19 14 12 14 17 14 14 14 14 13 13 12 12 11 9 8 7 5 3 4 9 10 11 11 12 14 16 15 13 15 15 16 16 17 18 19
6 13 22 28 29 25 25 28 32 28 22 19 17 17 16 15 15 15 14 13 13 13 11 9 8 8 8 6 4 7 10 12 12 13 15 14 13 16 17 16 18 20 21 21
9 22 16 25 25 18 16 18 20 26 29 25 21 18 16 16 14 13 10 10 10 11 12 10 9 9 9 9 9 7 9 13 14 15 16 18 19 17 15 18 18 19 20 23
28 34 34 35 33 26 23 20 19 19 25 27 22 20 18 16 14 11 9 9 8 9 10 10 10 8 8 9 10 12 12 13 16 17 19 20 21 22 27 25 22 23 22 22
40 42 33 43 27 22 19 18 20 18 21 25 23 21 19 17 15 14 12 9 10 11 10 11 9 7 10 10 11 13 14 17 18 19 21 21 22 21 23 26 29 31 27 27
47 45 45 41 35 31 28 24 25 23 24 28 27 25 21 20 18 15 14 13 13 13 15 13 11 11 12 13 14 16 19 20 21 19 19 20 20 21 22 23 24 25 26 24
34 36 42 44 47 42 37 31 30 30 28 30 30 27 24 20 17 16 15 15 15 12 11 12 12 13 14 15 16 17 19 18 18 18 17 17 18 19 21 22 23 24 25 25
30 29 34 35 37 36 35 33 34 33 30 33 31 27 24 23 21 20 18 17 16 15 14 13 13 13 14 15 16 16 16 16 15 16 17 19 20 21 21 22 23 24 25 24
36 36 35 37 37 36 34 34 34 35 34 32 31 28 27 27 26 23 20 18 17 15 13 12 12 12 13 14 14 14 14 15 16 17 19 20 21 21 22 22 23 24 25 24
22 21 21 27 31 32 32 33 31 30 34 32 31 31 29 26 22 22 19 19 17 13 12 12 12 11 12 13 15 16 16 17 17 18 19 21 21 22 23 23 24 25 25 26
16 17 19 21 23 24 26 27 27 25 31 33 30 31 28 25 22 20 20 17 13 13 13 12 11 12 13 13 14 15 16 17 18 19 20 22 24 25 24 24 25 25 25 26
14 14 15 17 18 17 17 17 21 23 25 32 32 31 28 24 22 20 19 17 13 13 12 12 12 12 11 11 12 12 13 15 17 19 22 24 26 26 25 24 25 25 25 24
9 13 14 13 12 12 12 14 16 18 23 29 30 27 25 23 21 19 16 14 13 13 12 12 11 10 9 10 11 14 17 20 22 23 24 26 28 28 26 25 24 24 24 23
11 14 14 14 11 9 11 15 17 18 23 28 29 28 26 21 19 18 17 14 14 13 12 11 10 9 11 13 16 20 23 25 26 26 26 26 25 24 25 24 24 24 23 23
11 12 14 13 11 10 15 16 16 17 21 24 24 22 21 21 19 17 16 13 12 12 11 10 10 12 15 18 21 24 25 25 25 24 25 25 25 24 25 25 25 23 23 22
12 13 15 15 14 14 14 16 18 21 22 23 23 20 18 18 15 15 13 13 12 10 10 11 13 16 19 22 23 22 22 22 23 24 25 25 26 27 27 27 26 24 23 22
17 16 15 15 14 15 17 20 24 25 27 26 22 20 19 17 15 13 13 12 11 10 11 13 16 19 20 20 20 20 21 22 23 24 25 26 27 27 28 27 27 26 24 22
20 18 18 17 19 18 20 23 25 27 27 22 21 20 18 16 14 13 12 11 10 10 12 15 17 17 17 18 19 20 21 22 23 25 26 27 27 28 27 27 26 25 24 23

GFSNGP_850_spd_129.txt.gz
Wind_Speed
6 6 2 4 6 4 3 4 4 2 5 7 5 5 5 9 10 12 16 19 21 24 25 26 28 30 28 24 21 18 19 20 20 16 13 14 12 10 10 9 7 8 8 9
5 3 5 6 9 6 6 3 7 5 7 8 9 6 8 6 7 8 11 14 15 17 20 22 23 23 23 23 19 17 15 16 15 14 12 12 10 9 7 8 7 7 5 4
4 3 3 5 6 6 4 4 4 4 6 4 3 6 8 5 5 5 8 10 12 14 15 15 17 18 19 18 17 17 15 13 12 11 11 10 8 6 6 6 4 3 3 2
4 3 3 4 0 3 6 8 8 6 5 7 6 7 8 9 8 6 6 8 9 10 9 11 11 11 12 13 13 12 12 13 12 11 10 9 7 5 4 2 0 2 3 4
1 2 6 2 3 4 4 6 6 11 6 8 7 5 16 14 12 8 5 5 6 7 8 9 8 10 11 10 9 7 8 8 8 8 7 6 5 5 3 1 2 3 5 7
1 0 2 4 3 6 3 5 8 12 9 9 6 1 4 6 11 10 7 5 4 4 4 5 6 7 8 8 9 11 13 12 10 8 7 7 7 6 6 7 8 8 9 10
3 4 7 7 6 8 1 5 8 16 14 18 6 14 5 6 9 10 9 7 6 5 3 2 2 4 5 7 8 9 8 8 8 9 9 9 9 9 10 10 10 10 11 12
2 1 6 13 7 7 6 7 10 14 17 24 26 16 16 12 12 12 12 10 9 8 6 5 3 1 2 4 6 8 7 7 7 8 9 9 9 8 8 9 10 12 13 12
9 6 4 31 13 18 12 11 13 16 16 19 21 25 21 18 16 15 15 14 14 12 11 9 8 6 3 1 3 4 5 6 7 9 10 11 9 8 8 9 10 11 12 14
1 7 16 26 33 27 25 26 22 19 17 18 21 20 21 20 19 18 17 17 16 16 15 13 11 10 8 5 3 3 3 5 6 6 8 9 12 12 12 13 13 14 15 16
7 14 16 30 32 34 29 27 27 28 29 27 23 22 21 21 20 19 18 18 19 19 19 16 14 12 12 11 9 6 5 5 6 8 9 10 11 13 14 15 17 19 20 20
9 15 13 24 26 24 22 21 19 21 24 26 30 29 23 22 19 18 18 18 17 17 18 17 16 13 12 12 11 10 9 9 9 10 11 13 14 14 16 18 18 19 19 20
30 37 33 38 36 34 29 27 23 20 21 21 24 27 26 23 20 18 17 16 15 13 14 15 15 14 12 11 9 10 10 10 11 13 15 16 16 17 20 16 17 18 19 20
41 42 33 46 31 29 17 19 22 20 19 19 20 24 26 24 21 20 19 14 12 12 12 13 15 14 13 11 11 11 12 12 13 15 18 15 14 16 17 18 20 19 19 21
47 47 49 49 40 36 28 25 25 24 24 26 22 26 28 27 25 22 17 16 14 13 14 16 16 16 16 15 14 14 15 16 17 18 16 15 15 15 16 18 20 22 23 23
24 26 35 38 38 38 32 32 34 38 34 31 28 29 30 28 23 20 19 19 19 18 16 16 16 16 16 14 15 16 16 16 17 15 14 14 15 17 18 19 21 22 23 24
28 29 34 36 37 40 37 30 30 29 29 29 31 29 30 29 26 24 23 21 19 18 18 15 14 14 14 15 15 14 14 14 13 13 14 16 17 18 19 20 21 22 22 22
38 35 34 33 31 32 31 31 29 27 28 26 26 29 31 33 31 27 24 21 20 20 19 16 14 13 12 12 12 12 13 13 14 15 16 17 17 18 19 21 22 24 24 24
17 19 18 20 21 22 26 27 28 25 23 23 26 29 30 32 30 26 23 22 23 20 17 13 12 12 11 11 11 13 14 15 15 15 16 17 18 19 21 23 25 26 26 26
9 10 11 11 14 15 19 21 23 23 21 21 22 28 30 32 28 25 24 24 23 17 13 12 12 11 11 11 13 12 12 13 14 15 17 19 21 23 25 26 28 28 26 25
5 6 6 5 6 8 11 14 17 18 16 18 21 27 28 28 27 26 23 23 19 16 14 13 12 11 11 10 10 10 10 11 14 17 20 22 24 26 27 29 30 28 26 25
5 2 3 5 5 6 7 8 9 12 14 15 19 24 27 28 28 25 21 17 15 14 14 13 12 11 10 9 8 9 12 16 19 22 23 24 25 25 26 27 25 26 25 25
3 2 3 6 7 8 8 7 7 9 14 14 18 23 26 28 27 25 20 19 17 15 13 12 11 10 9 9 10 13 16 20 22 22 22 23 23 24 25 26 25 26 27 26
0 2 5 7 8 9 9 7 9 11 13 14 15 20 24 26 23 18 16 16 16 14 12 11 10 9 9 11 13 16 19 20 19 20 21 22 24 25 26 27 28 28 27 27
5 4 5 8 10 10 8 8 10 12 13 15 17 21 22 20 16 18 18 17 15 13 12 11 10 9 11 13 16 16 16 17 18 20 21 23 24 26 27 27 28 28 28 27
6 9 8 8 10 12 11 9 12 13 16 20 22 23 22 17 17 17 18 16 13 13 12 10 10 10 12 13 13 13 15 16 17 19 21 23 25 26 27 27 27 27 26 25
5 9 9 9 12 13 12 12 13 16 19 23 24 24 19 18 19 17 16 15 14 12 10 9 9 10 9 10 11 12 13 15 17 20 22 23 24 25 25 26 26 26 25 23

GFSNGP_850_spd_132.txt.gz
Wind_Speed
10 11 7 8 9 8 7 7 5 2 7 11 9 5 3 6 6 6 8 10 13 17 19 20 22 24 24 22 22 23 23 24 22 19 19 16 14 15 14 12 10 7 6 5
4 3 8 9 12 11 12 12 14 15 16 8 7 5 5 2 3 4 4 6 9 11 14 17 19 20 21 21 20 19 20 19 17 16 15 15 13 13 11 9 7 5 5 5
3 2 4 7 8 12 6 7 6 7 4 3 5 7 8 6 6 4 3 3 5 7 9 10 12 15 16 17 17 17 17 16 16 15 13 13 12 12 11 9 7 5 4 5
3 2 3 2 2 4 11 11 13 14 12 9 9 7 9 9 10 9 5 2 2 4 4 5 7 8 10 11 11 11 11 12 12 12 12 11 9 7 6 5 4 3 3 3
3 3 7 3 5 6 7 4 13 18 15 14 8 8 18 17 15 12 9 7 4 1 1 3 4 5 8 8 8 6 6 8 8 9 8 7 5 5 4 3 1 2 3 5
0 3 4 2 5 6 4 6 9 14 9 11 9 5 4 5 13 15 13 9 6 5 3 2 1 2 5 5 5 6 7 8 8 7 5 4 4 4 3 3 3 4 5 6
6 6 8 4 10 10 2 2 9 13 11 15 9 12 4 5 9 11 12 11 10 8 6 5 5 3 1 1 1 3 5 6 6 6 6 5 5 4 3 3 4 5 6 8
4 4 8 15 10 6 1 6 9 14 16 17 21 15 15 14 11 12 13 13 12 11 9 9 8 7 5 3 1 1 2 2 3 4 5 6 6 7 7 8 8 9 8 8
8 5 2 33 6 24 7 7 12 15 17 20 20 22 22 19 18 17 16 15 15 14 12 12 11 10 8 7 4 2 1 1 2 3 4 5 6 7 8 9 9 10 11 12
3 7 17 20 33 25 20 23 19 18 17 20 24 22 23 23 24 22 21 20 19 17 16 15 14 14 13 11 8 6 5 4 3 2 3 5 6 7 8 9 11 13 14 15
9 21 18 28 30 28 27 27 29 30 29 27 25 27 25 24 24 24 22 22 21 21 20 19 18 17 16 15 13 11 9 8 7 6 7 7 8 8 9 12 12 14 15 16
11 24 16 22 19 17 18 18 19 21 26 26 28 31 29 28 26 24 23 22 23 22 21 20 21 20 18 17 16 15 14 12 10 10 10 11 10 10 11 12 12 14 15 15
33 41 30 31 36 31 29 31 33 28 28 25 23 23 26 28 28 26 24 23 23 21 18 17 19 20 19 17 14 12 11 10 11 10 11 14 14 13 13 12 11 11 13 15
35 37 29 34 26 29 23 23 20 17 19 22 21 22 22 23 25 27 27 23 20 18 17 17 18 19 19 18 17 14 13 13 13 13 14 16 14 14 14 14 15 16 17 17
42 37 41 42 35 36 35 32 31 30 29 28 27 24 24 25 27 29 25 22 20 18 17 17 18 19 19 19 18 16 15 15 16 17 17 16 14 14 14 15 17 19 20 20
22 24 29 33 31 32 32 30 27 27 28 29 29 30 30 27 26 28 26 24 24 23 20 18 18 17 18 18 18 18 17 17 16 16 15 14 14 14 16 17 19 20 21 21
22 25 27 30 34 34 35 33 28 26 24 25 24 22 26 28 28 29 29 27 24 21 19 19 19 18 18 19 17 16 15 15 14 12 12 13 14 16 17 18 19 20 22 23
36 37 30 27 23 25 24 23 21 21 24 23 21 22 23 28 32 33 32 29 25 24 23 22 20 18 16 15 15 14 14 13 12 12 13 14 15 16 17 18 20 22 24 26
21 20 22 20 19 20 20 21 20 18 19 20 23 24 23 25 29 32 32 30 27 27 25 23 19 17 16 15 15 14 13 13 13 13 13 13 14 16 18 20 23 25 26 28
15 15 13 12 11 12 14 13 16 19 18 19 20 22 23 23 27 31 32 31 29 26 22 20 19 18 16 15 14 13 13 13 12 12 11 13 16 19 22 23 25 26 26 25
15 12 10 9 8 8 10 10 11 13 13 15 17 19 19 19 24 29 31 31 28 24 22 19 18 17 16 14 13 13 12 12 11 12 14 17 20 22 23 23 23 23 24 24
13 10 10 9 6 5 5 6 7 8 10 10 11 14 16 19 23 26 28 28 24 21 19 20 18 16 14 13 13 12 11 11 12 15 18 20 21 21 22 23 23 23 22 22
13 11 9 7 4 4 5 6 7 8 9 10 11 13 17 19 23 30 30 26 22 19 20 19 17 15 14 12 11 11 11 12 15 17 18 18 19 21 22 24 25 26 27 28
10 8 6 5 5 7 8 9 10 11 11 12 12 13 16 20 23 27 24 20 17 20 20 18 16 15 12 12 11 10 12 14 15 15 16 17 19 21 22 24 25 26 27 27
13 10 7 6 6 8 9 10 11 12 12 12 12 12 14 17 22 25 24 18 20 21 19 17 15 13 13 11 10 11 12 12 13 13 15 17 18 20 22 23 25 26 27 27
13 10 6 6 6 6 8 10 11 11 12 12 12 13 16 18 21 19 18 20 20 20 18 16 14 13 11 9 10 9 9 10 10 12 14 16 17 19 22 24 25 27 27 27
14 9 7 7 8 8 10 11 13 13 13 13 14 18 21 22 20 18 21 22 20 18 17 15 13 10 9 8 7 8 6 7 9 11 13 15 17 19 21 22 25 27 28 27

GFSNGP_850_spd_135.txt.gz
Wind_Speed
13 15 13 12 11 10 10 11 5 2 8 13 12 8 7 5 5 5 6 7 8 10 12 14 17 19 19 19 20 21 21 23 22 16 18 17 17 16 18 17 17 17 14 12
4 3 7 14 16 16 17 17 18 20 22 17 7 5 8 8 6 6 5 6 6 7 8 10 12 14 16 18 18 16 17 18 16 15 14 14 17 15 11 11 9 8 5 5
4 3 6 8 13 19 10 10 13 8 6 3 5 6 9 10 10 8 7 5 5 6 6 7 9 10 12 13 14 15 16 15 14 13 12 13 13 12 12 11 9 7 6 5
5 5 3 2 1 1 14 13 15 16 15 10 10 10 9 10 12 12 9 7 5 4 4 4 4 6 7 8 8 9 11 12 12 12 12 11 10 10 9 7 6 6 5 4
3 5 12 7 6 6 7 6 12 19 15 13 10 9 18 19 17 15 12 9 7 6 6 4 3 3 4 5 6 7 7 7 9 9 9 8 8 8 7 6 6 5 3 2
1 4 5 3 8 6 4 5 9 10 9 7 7 5 4 4 16 16 14 12 10 9 7 5 5 2 2 3 4 4 5 7 8 8 8 7 7 6 5 5 4 4 3 2
8 5 9 5 11 9 2 2 10 12 10 9 8 10 1 3 8 13 14 13 13 12 11 9 9 6 4 3 3 3 3 4 5 6 6 6 5 5 6 6 6 6 5 6
5 6 9 16 10 6 3 5 8 11 12 14 18 14 11 10 9 11 13 14 15 13 12 13 12 10 8 7 5 3 2 1 3 3 3 4 5 5 5 6 6 7 7 8
8 6 2 28 10 20 3 4 6 10 11 16 17 17 16 16 15 15 15 15 16 16 14 14 14 14 13 12 9 6 5 4 3 3 3 4 5 6 7 8 9 10 11 11
5 11 16 21 30 28 18 16 14 13 15 14 18 19 19 17 18 18 18 18 17 16 16 16 16 16 15 15 12 10 8 7 5 5 5 6 7 8 7 8 8 9 10 12
15 23 25 33 30 26 24 23 25 23 19 20 22 25 24 23 22 22 22 22 21 20 19 18 15 16 17 18 16 14 12 10 9 9 9 8 9 9 9 11 11 12 12 13
11 27 20 20 21 12 16 20 19 18 18 21 21 23 25 26 26 25 24 23 24 23 22 20 18 18 18 20 19 18 16 14 12 11 10 10 11 10 11 11 12 13 13 12
36 42 32 31 31 28 25 26 26 25 26 24 24 26 24 22 24 25 26 26 26 25 23 21 21 21 20 21 20 19 17 15 14 13 13 13 13 12 11 12 11 10 11 12
37 38 35 36 26 23 19 24 24 23 23 20 19 21 23 23 22 24 26 27 26 25 24 22 20 20 20 21 21 19 17 16 15 15 14 15 16 15 13 12 11 13 15 15
46 35 38 37 34 31 27 26 24 30 31 29 28 28 26 26 25 23 22 24 27 27 25 23 21 20 20 21 21 21 20 17 16 17 17 15 16 14 13 13 14 16 16 17
25 25 30 35 35 38 35 34 29 32 29 28 24 26 27 29 27 24 24 25 30 31 27 25 22 21 22 22 22 22 21 20 18 18 17 16 14 13 14 15 16 17 17 18
32 33 30 26 28 29 34 30 29 29 28 25 24 24 24 24 27 28 28 27 28 28 26 24 22 23 20 21 22 22 21 19 18 17 15 13 13 14 15 16 16 17 18 20
41 42 35 31 26 22 25 23 25 25 23 21 21 22 24 26 28 27 29 27 28 29 27 24 24 22 21 19 20 20 19 18 17 14 13 13 14 14 15 15 17 19 21 23
30 33 32 31 28 27 29 24 22 20 18 17 18 20 22 24 24 23 24 26 30 32 29 26 23 22 21 19 18 18 17 16 15 14 14 14 14 13 14 16 19 22 24 25
22 23 22 22 19 18 23 20 16 17 15 15 17 19 21 22 21 20 24 26 30 30 28 25 25 22 20 19 18 17 17 16 15 14 13 12 12 14 17 20 22 23 23 23
18 18 18 16 15 15 15 15 13 11 9 12 14 16 17 17 17 19 24 25 27 30 26 23 22 19 20 20 19 18 16 15 14 13 12 12 14 17 20 20 20 21 23 24
19 19 16 15 15 12 10 8 7 8 8 8 9 10 12 13 14 17 19 21 26 27 25 23 22 19 20 19 18 16 15 15 13 12 12 15 17 18 18 19 21 22 23 24
16 13 13 14 13 10 8 5 6 8 9 9 9 10 11 13 14 18 21 23 22 23 23 22 18 19 20 18 17 16 15 13 12 12 14 15 16 16 18 20 21 22 24 25
13 15 14 13 12 10 8 6 7 10 12 12 12 11 11 12 12 14 17 20 21 21 21 18 20 20 20 17 16 15 14 13 12 13 13 14 14 15 17 18 20 21 23 24
15 13 13 13 12 9 7 6 9 12 12 11 11 11 11 11 12 15 18 17 20 19 17 18 20 19 16 16 15 13 12 12 11 10 10 11 12 14 15 17 19 21 24 25
19 16 14 13 10 9 9 9 12 12 10 9 10 10 11 10 12 13 18 19 18 17 19 21 20 17 16 15 13 11 11 10 9 8 8 9 10 12 14 16 19 23 26 26
19 17 16 13 12 11 11 12 12 12 10 9 9 9 10 12 14 16 17 17 18 21 21 19 17 16 14 13 11 10 9 8 6 6 7 7 9 11 13 17 21 23 24 24

GFSNGP_850_spd_141.txt.gz
Wind_Speed
10 17 14 15 13 11 11 10 6 5 6 7 9 12 16 24 20 14 11 11 13 11 9 9 9 11 13 16 17 17 20 21 26 23 23 18 12 9 11 10 16 17 17 16
6 8 9 7 14 17 17 15 18 21 27 21 27 21 13 9 12 14 12 12 13 13 10 9 8 9 10 12 14 15 16 18 18 21 21 23 22 25 23 25 23 13 14 17
6 6 8 6 8 14 6 5 17 13 13 7 7 7 10 13 15 17 17 13 14 14 12 9 7 7 7 8 8 9 11 13 14 14 15 17 18 19 19 17 20 21 16 17
4 6 4 5 4 6 14 6 15 10 12 9 10 15 19 18 18 20 19 17 16 14 11 9 7 6 5 5 6 5 6 8 10 11 13 14 14 14 15 14 13 13 13 13
2 2 9 4 3 5 7 7 17 20 19 20 21 14 17 17 22 23 19 17 16 14 12 9 7 6 6 5 4 5 5 5 6 8 9 10 12 13 13 12 13 13 13 11
1 2 5 4 2 3 2 5 6 15 14 7 6 2 5 8 8 8 18 18 18 16 13 12 9 6 6 4 4 4 3 4 5 6 7 8 9 10 10 9 10 10 9 9
5 4 9 9 6 4 1 6 3 16 17 14 6 10 9 7 9 8 10 16 18 19 17 14 13 11 10 7 6 4 3 2 2 3 5 6 7 8 9 8 8 8 6 7
4 4 9 10 6 7 6 3 6 11 14 16 17 16 17 17 15 13 14 17 19 20 18 16 16 14 14 13 10 8 6 5 2 1 3 4 4 6 7 6 6 6 5 4
11 8 4 25 12 14 12 10 12 13 18 18 19 20 20 22 22 20 18 19 20 20 19 19 19 17 17 15 14 12 11 9 8 7 5 4 3 1 1 1 1 2 1 2
1 8 19 20 30 32 32 32 35 37 34 27 28 28 27 25 25 25 24 24 22 23 23 22 21 20 17 16 15 15 14 13 12 10 9 8 7 5 4 4 4 2 2 2
13 18 23 36 42 39 32 29 32 30 32 37 34 33 30 31 28 27 27 26 26 26 26 24 21 20 18 19 19 17 17 16 15 13 12 10 9 7 6 6 5 4 4 3
15 26 18 27 36 34 28 25 28 33 35 33 30 33 31 33 31 26 28 28 30 30 29 28 24 22 20 20 20 19 20 20 18 16 14 12 10 9 7 6 5 4 3 3
36 50 45 47 41 44 36 43 47 44 41 39 37 34 32 34 33 32 32 32 31 31 31 29 27 25 22 22 21 20 21 20 20 18 17 15 13 12 10 7 6 5 4 4
38 43 42 42 34 38 35 38 37 38 41 40 37 35 33 32 33 34 31 30 30 30 30 28 27 27 24 23 22 21 20 21 22 20 18 16 14 14 12 11 8 7 7 6
51 47 50 51 45 47 47 47 42 39 42 45 44 40 35 34 34 33 32 28 26 28 29 27 26 27 25 25 24 23 22 23 23 21 20 18 16 14 14 11 9 8 7 7
39 33 37 45 39 46 41 43 44 41 36 37 40 39 38 36 36 34 31 30 29 31 30 27 27 25 26 27 25 24 22 21 22 22 22 19 17 14 13 10 9 9 9 10
32 34 41 40 38 40 40 40 40 40 36 34 34 33 29 29 29 31 30 28 26 28 29 27 25 21 25 28 25 24 22 22 23 23 21 19 17 16 12 11 10 9 10 10
49 47 48 46 44 40 40 39 36 34 33 28 24 24 24 26 28 26 23 22 23 23 27 26 24 22 24 26 25 23 22 22 20 20 17 16 16 13 12 11 10 9 9 10
36 39 40 41 41 39 38 39 35 30 25 23 20 21 20 21 21 20 18 19 21 22 23 24 24 22 24 25 24 22 22 21 20 20 19 17 16 13 12 10 9 9 10 12
24 20 20 23 23 22 25 24 22 19 19 19 15 15 16 15 16 16 16 19 19 20 16 18 22 22 22 23 23 22 22 21 21 19 18 16 14 12 11 10 10 10 12 13
12 12 14 24 24 18 14 14 15 13 10 10 11 10 11 10 11 13 15 16 14 16 15 17 18 19 22 24 24 22 22 21 21 19 17 15 13 11 10 10 10 11 12 12
23 18 15 20 22 21 13 9 8 7 5 4 3 2 3 4 6 7 9 10 8 10 13 14 15 17 20 23 22 22 19 19 17 17 15 13 11 10 8 9 10 10 11 12
30 20 15 11 13 13 11 6 4 4 3 2 2 3 5 5 6 7 7 7 7 6 8 9 12 15 20 20 19 16 16 17 16 13 12 11 10 8 8 8 8 9 10 11
38 25 13 9 10 7 9 11 8 5 3 3 4 5 5 5 5 6 6 5 5 4 6 10 12 18 19 18 15 15 16 15 14 13 12 11 9 8 7 7 7 7 9 11
34 28 15 10 7 8 7 12 14 8 4 4 6 8 8 7 6 6 4 3 5 7 9 11 15 18 17 14 14 15 14 13 12 11 9 9 7 6 5 5 5 6 8 9
30 25 20 17 15 16 15 12 16 14 5 4 8 10 9 7 4 2 2 4 8 10 13 18 16 14 13 13 15 14 14 13 11 9 8 8 7 6 4 4 4 5 6 8
31 28 25 26 25 19 17 17 18 11 4 7 13 12 9 6 3 4 6 8 11 14 16 14 13 11 14 14 14 13 12 11 9 8 8 7 5 4 3 3 3 5 7 9